Location: Budapest
(47.4979°N, 19.0402°E)
Time: 12:22:49
(UTC+02:00)

Envisat - Pass Details

Date: 27 May 2024
Orbit: 762 x 764 km, 98.3° (Epoch: 19 June)

Event Time Altitude Azimuth Distance (km) Brightness Sun altitude
Rises 02:41:33 0° 30° (NNE) 3,237 8.1 -16.0°
Reaches altitude 10° 02:44:54 10° 53° (NE) 2,305 6.6 -15.7°
Maximum altitude 02:47:47 15° 88° (E) 1,968 5.5 -15.5°
Drops below altitude 10° 02:50:39 10° 123° (ESE) 2,294 5.5 -15.2°
Sets 02:53:57 0° 146° (SE) 3,214 6.0 -14.9°
